�������l�o���
Date,Time,MP-1(��Sv/h),MP-2(��Sv/h),MP-3(��Sv/h),MP-4(��Sv/h),MP-5(��Sv/h),MP-6(��Sv/h),MP-7(��Sv/h),MP-8(��Sv/h),����,����(m/s),���J
2021/08/23,00:00,0.592,0.883,0.558,1.068,0.753,0.364,0.627,0.585,-,CALM,��
2021/08/23,00:10,0.592,0.883,0.555,1.068,0.753,0.364,0.627,0.586,�k,0.9,�L
2021/08/23,00:20,0.593,0.885,0.559,1.066,0.754,0.363,0.626,0.585,�k�k��,1.9,�L
2021/08/23,00:30,0.593,0.886,0.559,1.068,0.753,0.364,0.628,0.586,�k�k��,1.2,�L
2021/08/23,00:40,0.593,0.886,0.559,1.069,0.754,0.366,0.628,0.586,�k�k��,1.4,�L
2021/08/23,00:50,0.593,0.884,0.560,1.069,0.754,0.366,0.628,0.588,�k�k��,1.7,�L
2021/08/23,01:00,0.595,0.886,0.560,1.069,0.754,0.364,0.627,0.585,�k�k��,0.9,�L
2021/08/23,01:10,0.594,0.886,0.560,1.068,0.754,0.364,0.626,0.586,-,CALM,�L
2021/08/23,01:20,0.596,0.884,0.558,1.070,0.753,0.366,0.627,0.586,-,CALM,�L
2021/08/23,01:30,0.593,0.883,0.560,1.070,0.755,0.365,0.626,0.587,�k,0.9,�L
2021/08/23,01:40,0.592,0.886,0.560,1.069,0.754,0.365,0.627,0.586,-,CALM,�L
2021/08/23,01:50,0.593,0.884,0.559,1.068,0.753,0.364,0.627,0.586,-,CALM,�L
2021/08/23,02:00,0.595,0.884,0.559,1.069,0.754,0.365,0.627,0.586,�k,1.7,��
2021/08/23,02:10,0.594,0.884,0.559,1.068,0.754,0.365,0.627,0.586,�k,2.3,��
2021/08/23,02:20,0.592,0.883,0.559,1.070,0.753,0.364,0.627,0.585,�k�k��,1.7,��
2021/08/23,02:30,0.594,0.885,0.559,1.070,0.753,0.363,0.627,0.588,�k,0.8,�L
2021/08/23,02:40,0.595,0.887,0.558,1.069,0.751,0.364,0.627,0.586,�k,1.2,��
2021/08/23,02:50,0.594,0.886,0.558,1.069,0.753,0.364,0.628,0.586,�k,0.6,��
2021/08/23,03:00,0.593,0.882,0.560,1.068,0.753,0.364,0.628,0.586,-,CALM,��
2021/08/23,03:10,0.593,0.884,0.558,1.068,0.751,0.364,0.628,0.587,-,CALM,��
2021/08/23,03:20,0.592,0.882,0.558,1.068,0.753,0.365,0.628,0.587,��쐼,0.6,��
2021/08/23,03:30,0.593,0.884,0.557,1.068,0.753,0.363,0.628,0.586,��,0.9,��
2021/08/23,03:40,0.592,0.885,0.558,1.069,0.753,0.364,0.627,0.586,��,0.6,��
2021/08/23,03:50,0.593,0.883,0.558,1.068,0.752,0.365,0.628,0.587,-,CALM,��
2021/08/23,04:00,0.592,0.884,0.558,1.066,0.754,0.363,0.627,0.585,-,CALM,��
2021/08/23,04:10,0.591,0.885,0.558,1.070,0.753,0.365,0.627,0.584,�k�k��,0.6,�L
2021/08/23,04:20,0.593,0.885,0.559,1.072,0.753,0.366,0.627,0.587,�k��,2.2,�L
2021/08/23,04:30,0.593,0.886,0.560,1.069,0.754,0.364,0.628,0.588,�k�k��,2.0,�L
2021/08/23,04:40,0.593,0.883,0.559,1.069,0.752,0.364,0.628,0.587,-,CALM,�L
2021/08/23,04:50,0.594,0.882,0.558,1.069,0.753,0.365,0.627,0.587,-,CALM,�L
2021/08/23,05:00,0.592,0.879,0.559,1.068,0.753,0.365,0.625,0.585,�k,0.8,�L
2021/08/23,05:10,0.592,0.881,0.558,1.068,0.752,0.366,0.626,0.585,�k�k��,6.2,�L
2021/08/23,05:20,0.594,0.879,0.560,1.069,0.752,0.367,0.626,0.586,�k�k��,6.1,�L
2021/08/23,05:30,0.591,0.876,0.558,1.066,0.748,0.367,0.624,0.585,�k�k��,6.9,�L
2021/08/23,05:40,0.589,0.872,0.557,1.057,0.742,0.364,0.621,0.581,�k�k��,8.3,�L
2021/08/23,05:50,0.590,0.868,0.554,1.055,0.742,0.365,0.621,0.579,�k,7.6,�L
2021/08/23,06:00,0.588,0.865,0.554,1.051,0.741,0.365,0.620,0.580,�k,5.1,�L
2021/08/23,06:10,0.586,0.862,0.554,1.047,0.738,0.366,0.617,0.577,���쓌,0.9,�L
2021/08/23,06:20,0.583,0.857,0.550,1.037,0.727,0.362,0.612,0.573,�k��,5.9,�L
2021/08/23,06:30,0.577,0.848,0.548,1.025,0.723,0.363,0.612,0.574,�k,5.1,�L
2021/08/23,06:40,0.576,0.846,0.547,1.021,0.725,0.362,0.611,0.574,�k�k��,3.3,�L
2021/08/23,06:50,0.578,0.845,0.549,1.022,0.723,0.364,0.610,0.571,���쐼,3.1,�L
2021/08/23,07:00,0.577,0.844,0.549,1.019,0.718,0.361,0.606,0.569,�쓌,4.1,�L
2021/08/23,07:10,0.575,0.841,0.546,1.012,0.717,0.362,0.608,0.568,�k�k��,1.1,�L
2021/08/23,07:20,0.576,0.842,0.548,1.017,0.719,0.364,0.606,0.568,�k��,2.6,�L
2021/08/23,07:30,0.578,0.845,0.549,1.018,0.718,0.364,0.607,0.571,��쐼,7.2,�L
2021/08/23,07:40,0.579,0.845,0.550,1.018,0.722,0.365,0.610,0.573,��쓌,1.2,�L
2021/08/23,07:50,0.584,0.849,0.551,1.022,0.725,0.365,0.608,0.572,��쐼,1.1,�L
2021/08/23,08:00,0.585,0.853,0.550,1.023,0.726,0.365,0.609,0.573,��쐼,1.2,��
2021/08/23,08:10,0.581,0.851,0.549,1.025,0.725,0.363,0.611,0.572,��쐼,2.2,��
2021/08/23,08:20,0.581,0.851,0.549,1.027,0.724,0.362,0.610,0.574,��쐼,1.9,��
2021/08/23,08:30,0.580,0.850,0.546,1.025,0.723,0.360,0.609,0.573,��쐼,1.2,��
2021/08/23,08:40,0.578,0.849,0.546,1.025,0.723,0.359,0.610,0.573,��쓌,2.3,��
2021/08/23,08:50,0.578,0.848,0.547,1.027,0.721,0.358,0.611,0.573,��,3.3,��
2021/08/23,09:00,0.577,0.847,0.545,1.025,0.719,0.356,0.609,0.572,��쓌,2.3,��
2021/08/23,09:10,0.576,0.844,0.547,1.026,0.723,0.356,0.611,0.573,��쐼,2.3,��
2021/08/23,09:20,0.577,0.848,0.544,1.025,0.721,0.355,0.610,0.571,��,3.9,��
2021/08/23,09:30,0.577,0.847,0.545,1.030,0.720,0.356,0.611,0.571,��쐼,4.7,��
2021/08/23,09:40,0.576,0.848,0.542,1.028,0.718,0.356,0.611,0.572,��,3.8,�L
2021/08/23,09:50,0.578,0.848,0.541,1.027,0.723,0.356,0.610,0.573,��쐼,2.9,��
2021/08/23,10:00,0.577,0.849,0.540,1.028,0.723,0.356,0.610,0.572,��쐼,1.2,��
2021/08/23,10:10,0.577,0.848,0.542,1.028,0.723,0.356,0.611,0.572,��,2.3,��
2021/08/23,10:20,0.576,0.850,0.543,1.030,0.722,0.355,0.612,0.573,�쐼,2.3,��
2021/08/23,10:30,0.577,0.850,0.543,1.029,0.722,0.357,0.612,0.573,��쐼,2.2,��
2021/08/23,10:40,0.578,0.850,0.542,1.027,0.722,0.355,0.614,0.574,��,0.8,��
2021/08/23,10:50,0.578,0.848,0.544,1.029,0.722,0.357,0.613,0.572,��쐼,0.9,��
2021/08/23,11:00,0.576,0.852,0.542,1.029,0.724,0.356,0.613,0.573,��쐼,1.7,��
2021/08/23,11:10,0.578,0.853,0.544,1.029,0.723,0.356,0.612,0.574,��쓌,1.7,��
2021/08/23,11:20,0.575,0.852,0.545,1.030,0.725,0.356,0.613,0.575,�쓌,1.7,��
2021/08/23,11:30,0.577,0.850,0.544,1.031,0.726,0.355,0.614,0.574,��쓌,1.7,��
2021/08/23,11:40,0.576,0.856,0.544,1.032,0.726,0.356,0.613,0.574,�쓌,1.7,��
2021/08/23,11:50,0.577,0.854,0.543,1.033,0.728,0.357,0.615,0.575,��쓌,1.7,��
2021/08/23,12:00,0.579,0.856,0.544,1.033,0.730,0.356,0.614,0.576,��,1.2,��
2021/08/23,12:10,0.578,0.855,0.543,1.034,0.729,0.357,0.615,0.575,��쐼,1.4,��
2021/08/23,12:20,0.580,0.857,0.545,1.035,0.730,0.357,0.615,0.576,��쐼,0.8,��
2021/08/23,12:30,0.579,0.858,0.547,1.034,0.732,0.357,0.616,0.575,�쓌,1.1,��
2021/08/23,12:40,0.580,0.855,0.545,1.035,0.730,0.358,0.615,0.576,���쓌,1.2,��
2021/08/23,12:50,0.582,0.859,0.545,1.037,0.732,0.357,0.616,0.575,���쓌,1.9,��
2021/08/23,13:00,0.580,0.858,0.547,1.037,0.731,0.358,0.615,0.577,�쓌,2.0,��
2021/08/23,13:10,0.580,0.858,0.549,1.040,0.732,0.356,0.615,0.575,���쓌,2.5,��
2021/08/23,13:20,0.581,0.858,0.548,1.040,0.733,0.359,0.618,0.577,���쓌,2.0,��
2021/08/23,13:30,0.582,0.858,0.551,1.041,0.734,0.358,0.617,0.578,�쓌,1.5,��
2021/08/23,13:40,0.581,0.859,0.547,1.042,0.733,0.359,0.616,0.576,���쓌,2.6,��
2021/08/23,13:50,0.582,0.860,0.547,1.040,0.733,0.359,0.618,0.577,�쓌,3.7,��
2021/08/23,14:00,0.581,0.860,0.548,1.039,0.734,0.359,0.616,0.577,���쓌,3.0,��
2021/08/23,14:10,0.583,0.861,0.548,1.040,0.734,0.359,0.616,0.578,���쓌,3.0,��
2021/08/23,14:20,0.581,0.860,0.550,1.042,0.733,0.358,0.617,0.577,��,2.3,��
2021/08/23,14:30,0.582,0.861,0.549,1.044,0.731,0.358,0.618,0.575,���쓌,1.9,��
2021/08/23,14:40,0.584,0.859,0.550,1.043,0.733,0.358,0.618,0.578,���쓌,2.8,��
2021/08/23,14:50,0.582,0.862,0.549,1.041,0.736,0.358,0.618,0.577,���쓌,3.0,��
2021/08/23,15:00,0.581,0.861,0.551,1.043,0.736,0.360,0.618,0.578,���쓌,3.2,��
2021/08/23,15:10,0.581,0.862,0.550,1.041,0.736,0.359,0.619,0.578,���쓌,3.0,��
2021/08/23,15:20,0.584,0.860,0.549,1.042,0.736,0.360,0.617,0.578,�쓌,2.5,��
2021/08/23,15:30,0.583,0.861,0.549,1.041,0.738,0.358,0.618,0.577,�쓌,3.1,��
2021/08/23,15:40,0.585,0.864,0.551,1.042,0.738,0.359,0.620,0.577,�쓌,3.2,��
2021/08/23,15:50,0.583,0.863,0.551,1.040,0.738,0.359,0.618,0.577,��쓌,3.2,��
2021/08/23,16:00,0.584,0.864,0.550,1.043,0.737,0.359,0.618,0.578,��쓌,3.5,��
2021/08/23,16:10,0.584,0.865,0.550,1.043,0.738,0.358,0.619,0.577,��쓌,3.3,��
2021/08/23,16:20,0.585,0.865,0.551,1.042,0.738,0.358,0.617,0.576,��쓌,2.3,��
2021/08/23,16:30,0.587,0.864,0.551,1.043,0.739,0.360,0.618,0.577,��쐼,2.2,��
2021/08/23,16:40,0.586,0.864,0.551,1.044,0.740,0.359,0.616,0.578,��,2.3,��
2021/08/23,16:50,0.587,0.865,0.551,1.045,0.736,0.361,0.617,0.577,��,2.0,��
2021/08/23,17:00,0.586,0.862,0.550,1.043,0.739,0.360,0.618,0.577,��,2.6,��
2021/08/23,17:10,0.584,0.863,0.552,1.046,0.737,0.359,0.618,0.578,��,1.5,��
2021/08/23,17:20,0.585,0.864,0.551,1.045,0.738,0.360,0.619,0.578,��,1.7,��
2021/08/23,17:30,0.587,0.864,0.551,1.046,0.737,0.360,0.618,0.579,��쐼,1.2,��
2021/08/23,17:40,0.584,0.864,0.552,1.045,0.737,0.360,0.617,0.579,���k��,1.4,��
2021/08/23,17:50,0.586,0.865,0.551,1.047,0.737,0.362,0.619,0.578,�k�k��,3.3,��
2021/08/23,18:00,0.586,0.864,0.551,1.044,0.736,0.361,0.616,0.579,�k,3.2,��
2021/08/23,18:10,0.584,0.865,0.552,1.044,0.740,0.360,0.618,0.577,�k�k��,2.3,��
2021/08/23,18:20,0.585,0.865,0.550,1.043,0.737,0.360,0.617,0.578,�k,2.0,��
2021/08/23,18:30,0.587,0.864,0.551,1.046,0.738,0.360,0.617,0.579,�k,2.9,��
2021/08/23,18:40,0.586,0.865,0.551,1.046,0.740,0.361,0.617,0.578,�k,2.2,��
2021/08/23,18:50,0.587,0.864,0.549,1.046,0.741,0.360,0.619,0.580,�k,2.3,��
2021/08/23,19:00,0.585,0.867,0.550,1.047,0.740,0.359,0.619,0.580,�k�k��,2.6,��
2021/08/23,19:10,0.587,0.864,0.553,1.046,0.739,0.362,0.618,0.580,�k�k��,2.8,��
2021/08/23,19:20,0.585,0.869,0.552,1.047,0.741,0.360,0.617,0.579,�k,3.0,��
2021/08/23,19:30,0.585,0.867,0.553,1.046,0.740,0.361,0.618,0.579,�k,4.7,��
2021/08/23,19:40,0.585,0.867,0.554,1.050,0.742,0.360,0.621,0.579,�k�k��,4.5,��
2021/08/23,19:50,0.585,0.868,0.552,1.048,0.741,0.361,0.618,0.581,�k,5.3,��
2021/08/23,20:00,0.586,0.868,0.553,1.049,0.739,0.360,0.619,0.580,�k�k��,6.2,��
2021/08/23,20:10,0.584,0.867,0.552,1.048,0.741,0.360,0.620,0.579,�k�k��,6.1,��
2021/08/23,20:20,0.586,0.868,0.554,1.048,0.742,0.361,0.617,0.580,�k�k��,6.6,��
2021/08/23,20:30,0.584,0.868,0.553,1.051,0.741,0.360,0.619,0.580,�k��,6.4,��
2021/08/23,20:40,0.585,0.868,0.554,1.050,0.741,0.359,0.619,0.580,�k�k��,6.3,��
2021/08/23,20:50,0.585,0.868,0.554,1.051,0.740,0.359,0.620,0.581,�k�k��,5.9,��
2021/08/23,21:00,0.585,0.865,0.554,1.049,0.741,0.360,0.618,0.580,�k�k��,5.3,��
2021/08/23,21:10,0.583,0.868,0.553,1.048,0.741,0.359,0.619,0.580,�k��,5.1,��
2021/08/23,21:20,0.584,0.866,0.554,1.048,0.741,0.359,0.619,0.579,�k��,3.6,��
2021/08/23,21:30,0.585,0.868,0.553,1.052,0.741,0.360,0.619,0.579,�k��,3.3,��
2021/08/23,21:40,0.584,0.867,0.553,1.049,0.742,0.361,0.619,0.580,���k��,3.2,��
2021/08/23,21:50,0.585,0.868,0.553,1.052,0.740,0.359,0.618,0.582,�k��,2.6,��
2021/08/23,22:00,0.586,0.868,0.553,1.050,0.741,0.360,0.618,0.578,�k��,2.6,��
2021/08/23,22:10,0.586,0.867,0.552,1.049,0.741,0.361,0.620,0.580,�k��,2.9,��
2021/08/23,22:20,0.584,0.868,0.554,1.052,0.742,0.359,0.618,0.580,�k�k��,2.9,��
2021/08/23,22:30,0.585,0.868,0.553,1.049,0.741,0.360,0.621,0.582,�k�k��,2.6,��
2021/08/23,22:40,0.585,0.870,0.555,1.050,0.743,0.361,0.619,0.580,�k��,3.2,��
2021/08/23,22:50,0.586,0.865,0.554,1.049,0.743,0.360,0.619,0.582,�k��,3.0,��
2021/08/23,23:00,0.586,0.867,0.553,1.051,0.744,0.360,0.618,0.581,�k��,2.6,��
2021/08/23,23:10,0.584,0.868,0.554,1.050,0.743,0.360,0.619,0.581,�k��,2.6,��
2021/08/23,23:20,0.585,0.868,0.555,1.051,0.742,0.359,0.619,0.581,�k��,2.9,��
2021/08/23,23:30,0.585,0.868,0.553,1.052,0.743,0.362,0.619,0.579,�k��,2.6,��
2021/08/23,23:40,0.586,0.868,0.553,1.051,0.742,0.359,0.619,0.581,���k��,2.5,��
2021/08/23,23:50,0.585,0.869,0.553,1.049,0.741,0.360,0.620,0.581,���k��,2.9,��
